Preview of NWS' New Version of Forecast
This preview is not operational and should not be used for support decisions.

Regional Weather Roundup (RWR)

Issued by Philadelphia/Mt Holly (PHI)

                            
000
ASUS41 KPHI 201412
RWRPHI

REGIONAL WEATHER ROUNDUP
NATIONAL WEATHER SERVICE MOUNT HOLLY NJ
1000 AM EDT WED MAR 20 2019

NOTE:  "FAIR" INDICATES FEW OR NO CLOUDS BELOW 12,000 FEET WITH NO
SIGNIFICANT WEATHER AND/OR OBSTRUCTIONS TO VISIBILITY.

 * = STATION DOES NOT REPORT PRECIPITATION (E.G. RAIN, SNOW, ETC.) 
        OR FOG.

NJZ015>026-201500-
SOUTHERN NEW JERSEY
  
CITY           SKY/WX    TMP DP  RH WIND       PRES   REMARKS
POMONA         FAIR      44  36  73 CALM      30.42S                  
WILDWOOD*      FAIR      46  27  47 E6        30.42F                  
MILLVILLE      FAIR      41  35  79 CALM      30.41F                  
WRIGHTSTOWN    FAIR      45  27  49 SW7       30.39S                  
MOUNT HOLLY    FAIR      42  29  59 SW3       30.42S                  
TRENTON        FAIR      40  33  76 VRB3      30.41S                  

$$
NJZ001>014-201500-
NORTHERN NEW JERSEY
  
CITY           SKY/WX    TMP DP  RH WIND       PRES   REMARKS
SUSSEX         FAIR      36  26  67 VRB3      30.37F                  
ANDOVER*         N/A     40  20  44 VRB3      30.38S                  
MORRISTOWN     SUNNY     39  28  65 CALM      30.42S                  
NEWARK         FAIR      42  33  70 VRB5      30.41F                  
TETERBORO      FAIR      41  29  62 S8        30.40F                  
CALDWELL       FAIR      38  26  62 CALM      30.41F                  
SOMERVILLE     FAIR      38  28  67 CALM      30.40S                  
ALLAIRE*       FAIR      43  30  60 SW6       30.43S                  
TOMS RIVER*    FAIR      45  31  58 SW5       30.43S                  

$$
PAZ043-044-047-054-055-060>062-066>071-201500-
EASTERN PENNSYLVANIA
  
CITY           SKY/WX    TMP DP  RH WIND       PRES   REMARKS
PHILADELPHIA   PTSUNNY   41  31  67 S3        30.42S                  
NORTH PHILA    FAIR      46  30  53 SW5       30.43S                  
BLUE BELL*     FAIR      43  28  56 W3        30.41F                  
DOYLESTOWN     FAIR      42  28  57 SW7       30.39S                  
QUAKERTOWN*    SUNNY     41  25  52 CALM      30.39S                  
PERKASIE*      FAIR      41  23  48 SW5       30.39F                  
POTTSTOWN      FAIR      39  25  57 CALM      30.41S                  
LANCASTER      FAIR      40  29  64 CALM      30.39S                  
COATESVILLE    FAIR      41  30  65 VRB6      30.39F                  
READING        FAIR      40  27  59 CALM      30.38F                  
ALLENTOWN      FAIR      38  22  52 CALM      30.39S                  
MOUNT POCONO   FAIR      38  18  44 SW10      30.31S WCI  31          
HAZLETON       FAIR      41  16  36 S3        30.35S                  
LEHIGHTON      FAIR      34  25  69 CALM      30.40S                  
WILKES BARRE   FAIR      38  21  50 N3        30.34S                  

$$
DEZALL-MDZ008-012-015-019-020-201500-
DELAWARE AND EASTERN MARYLAND
  
CITY           SKY/WX    TMP DP  RH WIND       PRES   REMARKS
WILMINGTON     FAIR      42  30  62 CALM      30.42S                  
DOVER          FAIR      43  32  66 E3        30.41S                  
GEORGETOWN     FAIR      47  31  53 E8        30.40F                  
EASTON         PTSUNNY   46  28  49 E5        30.44S                  
ABERDEEN       PTSUNNY   41  36  81 CALM      30.41S                  
PATUXENT       PTSUNNY   45  33  63 E7        30.40R                  
OCEAN CITY     FAIR      46  34  62 E10       30.40S                  
WALLOPS ISLAND PTSUNNY   49  34  56 NE14      30.39R                  
CAMBRIDGE      SUNNY     45  28  53 E6        30.40S                  
SALISBURY      FAIR      45  34  65 E8        30.39F                  

$$
PAZ001-021-NYZ056-072-MDZ011-DCZ001-201500-
OTHER NEARBY LOCATIONS
  
CITY           SKY/WX    TMP DP  RH WIND       PRES   REMARKS
HARRISBURG     CLOUDY    40  26  57 SE5       30.38S                  
STATE COLLEGE  SUNNY     34  21  60 CALM      30.32S                  
WILLIAMSPORT   FAIR      33  22  63 SE3       30.36S                  
BINGHAMTON     FAIR      37  19  48 SW8       30.28S WCI  31          
NEW YORK CITY  FAIR      46  26  45 CALM      30.43S                  
BALTIMORE      CLOUDY    44  29  55 CALM      30.40S                  
WASHINGTON DC  CLOUDY    44  30  57 CALM      30.41S                  

$$